2024-168D

Last updated on Fri Oct 04 2024 00:02:04 GMT+0000 (Coordinated Universal Time)

1 61188U 24168D 24277.41890783 .00163474 -72211-7 20076-2 0 9990 2 61188 55.0056 316.0542 5804864 174.7682 196.0928 4.44759275 640
UTC large
Height (km)
Speed (km/s)
/
Latitude / Longitude
Inclination (degrees)
Orbital Period (minutes)
Azimuth
Elevation
Range (km)
Doppler Factor

Next 0 passes for location: London (51.5072 / 0.1276)

Sorry there are no passes over London.